Date String (YYYY-MM-DD hh:mm:ss) UTC,Instrument flags,Ambient pressure (hPa),Sample flow (lpm),Bypass flow (lpm),Sample temperature (°C),Ambient temperature (°C),ASC tube jacket temperature (°C),LED temperature (°C),Box temperature (°C),Sample RH (%),Span deviation,Mass concentration (μg/m³),Mass concentration (μg/m³),Mass concentration (μg/m³)
DateTimeUTC,F1_M11,P_M11,Q1_M11,Q2_M11,T1_M11,T2_M11,T3_M11,T4_M11,T5_M11,U1_M11,ZSPAN_M11,X2_M11,X0_M11,X1_M11
2021-12-08 08:00:00,,0820.3,5.00,0.00,22.8,22.0,00.0,31.8,24.6,11.3,0000.0,0004.77,0022.77,0002.79
2021-12-08 08:01:00,,0820.3,5.00,0.00,22.8,22.0,00.0,31.8,24.5,11.3,0000.0,0004.69,0021.26,0002.76
2021-12-08 08:02:00,,0820.3,5.01,0.00,22.8,22.0,00.0,31.8,24.5,11.3,0000.0,0004.64,0020.71,0002.72
2021-12-08 08:03:00,,0820.4,4.98,0.00,22.8,22.0,00.0,31.8,24.5,11.3,0000.0,0004.68,0020.59,0002.72
2021-12-08 08:04:00,,0820.4,5.00,0.00,22.8,22.0,00.0,31.8,24.6,11.3,0000.0,0004.64,0019.46,0002.72
2021-12-08 08:05:00,,0820.4,5.00,0.00,22.8,22.0,00.0,31.8,24.5,11.3,0000.0,0004.64,0020.00,0002.72
2021-12-08 08:06:00,,0820.3,5.00,0.00,22.8,22.0,00.0,31.8,24.5,11.3,0000.0,0004.72,0020.45,0002.73
2021-12-08 08:07:00,,0820.3,5.01,0.00,22.7,21.9,00.0,31.8,24.5,11.3,0000.0,0004.72,0019.55,0002.70
2021-12-08 08:08:00,,0820.3,4.99,0.00,22.7,21.9,00.0,31.8,24.5,11.3,0000.0,0004.70,0018.87,0002.67
2021-12-08 08:09:00,,0820.2,5.01,0.00,22.7,21.9,00.0,31.8,24.5,11.3,0000.0,0004.61,0018.58,0002.65
2021-12-08 08:10:00,,0820.3,4.98,0.00,22.7,21.9,00.0,31.8,24.5,11.3,0000.0,0004.51,0016.94,0002.61
2021-12-08 08:11:00,,0820.4,5.01,0.00,22.7,21.9,00.0,31.8,24.5,11.3,0000.0,0004.44,0014.49,0002.61
2021-12-08 08:12:00,,0820.3,5.01,0.00,22.7,21.9,00.0,31.8,24.5,11.3,0000.0,0004.45,0013.97,0002.62
2021-12-08 08:13:00,,0820.3,4.99,0.00,22.7,21.9,00.0,31.8,24.5,11.3,0000.0,0004.55,0014.01,0002.64
2021-12-08 08:14:00,,0820.2,5.00,0.00,22.7,21.9,00.0,31.8,24.5,11.3,0000.0,0004.53,0014.64,0002.65
2021-12-08 08:15:00,,0820.2,4.99,0.00,22.7,21.9,00.0,31.8,24.5,11.3,0000.0,0004.55,0015.27,0002.61
2021-12-08 08:16:00,,0820.2,5.00,0.00,22.7,21.9,00.0,31.8,24.5,11.3,0000.0,0004.46,0014.51,0002.59
2021-12-08 08:17:00,,0820.3,5.00,0.00,22.7,21.9,00.0,31.7,24.5,11.3,0000.0,0004.33,0014.26,0002.56
2021-12-08 08:18:00,,0820.3,5.00,0.00,22.7,21.9,00.0,31.7,24.5,11.2,0000.0,0004.37,0014.99,0002.54
2021-12-08 08:19:00,,0820.3,4.99,0.00,22.7,22.0,00.0,31.7,24.4,11.2,0000.0,0004.39,0015.93,0002.53
2021-12-08 08:20:00,,0820.2,5.00,0.00,22.7,21.9,00.0,31.7,24.4,11.3,0000.0,0004.41,0016.86,0002.52
2021-12-08 08:21:00,,0820.2,5.01,0.00,22.7,21.9,00.0,31.7,24.5,11.3,0000.0,0004.43,0018.19,0002.53
2021-12-08 08:22:00,,0820.3,5.00,0.00,22.7,21.9,00.0,31.7,24.5,11.3,0000.0,0004.49,0019.44,0002.54
2021-12-08 08:23:00,,0820.3,5.01,0.00,22.7,21.9,00.0,31.7,24.5,11.3,0000.0,0004.55,0019.91,0002.56
2021-12-08 08:24:00,,0820.4,4.99,0.00,22.7,21.9,00.0,31.7,24.5,11.3,0000.0,0004.49,0019.15,0002.56
2021-12-08 08:25:00,,0820.4,5.01,0.00,22.7,21.9,00.0,31.7,24.5,11.2,0000.0,0004.49,0018.21,0002.54
2021-12-08 08:26:00,,0820.5,5.00,0.00,22.7,21.9,00.0,31.7,24.4,11.2,0000.0,0004.41,0018.25,0002.53
2021-12-08 08:27:00,,0820.6,5.01,0.00,22.6,21.9,00.0,31.7,24.3,11.3,0000.0,0004.39,0018.21,0002.54
2021-12-08 08:28:00,,0820.6,5.00,0.00,22.6,21.8,00.0,31.7,24.3,11.3,0000.0,0004.42,0018.33,0002.53
2021-12-08 08:29:00,,0820.6,5.00,0.00,22.6,21.7,00.0,31.7,24.3,11.4,0000.0,0004.36,0018.36,0002.53
2021-12-08 08:30:00,,0820.6,5.00,0.00,22.6,21.7,00.0,31.7,24.2,11.4,0000.0,0004.34,0017.44,0002.52
2021-12-08 08:31:00,,0820.6,5.01,0.00,22.5,21.7,00.0,31.6,24.2,11.4,0000.0,0004.31,0016.51,0002.52
2021-12-08 08:32:00,,0820.6,5.00,0.00,22.5,21.7,00.0,31.6,24.2,11.4,0000.0,0004.25,0015.84,0002.51
2021-12-08 08:33:00,,0820.7,4.99,0.00,22.5,21.7,00.0,31.6,24.2,11.4,0000.0,0004.23,0016.18,0002.51
2021-12-08 08:34:00,,0820.7,5.00,0.00,22.5,21.7,00.0,31.6,24.2,11.4,0000.0,0004.18,0016.13,0002.50
2021-12-08 08:35:00,,0820.6,5.01,0.00,22.5,21.7,00.0,31.6,24.3,11.4,0000.0,0004.18,0016.20,0002.50
2021-12-08 08:36:00,,0820.6,4.98,0.00,22.5,21.7,00.0,31.6,24.2,11.5,0000.0,0004.25,0017.09,0002.53
2021-12-08 08:37:00,,0820.6,5.01,0.00,22.5,21.7,00.0,31.6,24.2,11.5,0000.0,0004.31,0016.77,0002.56
2021-12-08 08:38:00,,0820.6,5.00,0.00,22.4,21.6,00.0,31.5,24.1,11.5,0000.0,0004.30,0016.49,0002.55
2021-12-08 08:39:00,,0820.6,5.01,0.00,22.4,21.6,00.0,31.5,24.1,11.6,0000.0,0004.30,0015.87,0002.56
2021-12-08 08:40:00,,0820.6,5.00,0.00,22.4,21.6,00.0,31.5,24.0,11.6,0000.0,0004.36,0015.19,0002.59
2021-12-08 08:41:00,,0820.6,5.00,0.00,22.3,21.6,00.0,31.5,24.0,11.6,0000.0,0004.37,0015.00,0002.61
2021-12-08 08:42:00,,0820.6,5.00,0.00,22.4,21.6,00.0,31.5,24.1,11.6,0000.0,0004.37,0015.02,0002.63
2021-12-08 08:43:00,,0820.6,5.00,0.00,22.4,21.6,00.0,31.5,24.1,11.6,0000.0,0004.44,0014.54,0002.64
2021-12-08 08:44:00,,0820.6,5.01,0.00,22.4,21.6,00.0,31.5,24.1,11.6,0000.0,0004.44,0013.17,0002.65
2021-12-08 08:45:00,,0820.6,5.00,0.00,22.4,21.7,00.0,31.5,24.2,11.6,0000.0,0004.41,0012.94,0002.66
2021-12-08 08:46:00,,0820.6,4.99,0.00,22.4,21.7,00.0,31.5,24.2,11.5,0000.0,0004.45,0013.14,0002.71
2021-12-08 08:47:00,,0820.6,4.99,0.00,22.4,21.7,00.0,31.5,24.2,11.5,0000.0,0004.41,0012.35,0002.72
2021-12-08 08:48:00,,0820.6,5.01,0.00,22.4,21.7,00.0,31.4,24.2,11.6,0000.0,0004.42,0012.67,0002.75
2021-12-08 08:49:00,,0820.6,4.99,0.00,22.4,21.7,00.0,31.4,24.3,11.5,0000.0,0004.50,0014.13,0002.77
2021-12-08 08:50:00,,0820.7,5.01,0.00,22.4,21.7,00.0,31.4,24.2,11.6,0000.0,0004.53,0014.71,0002.79
2021-12-08 08:51:00,,0820.7,4.99,0.00,22.4,21.7,00.0,31.4,24.2,11.5,0000.0,0004.58,0016.24,0002.81
2021-12-08 08:52:00,,0820.7,5.00,0.00,22.4,21.7,00.0,31.4,24.2,11.5,0000.0,0004.63,0017.62,0002.84
2021-12-08 08:53:00,,0820.6,4.99,0.00,22.5,21.7,00.0,31.4,24.2,11.5,0000.0,0004.69,0018.88,0002.86
2021-12-08 08:54:00,,0820.6,5.01,0.00,22.4,21.7,00.0,31.4,24.2,11.5,0000.0,0004.66,0019.78,0002.86
2021-12-08 08:55:00,,0820.7,4.99,0.00,22.4,21.7,00.0,31.4,24.2,11.5,0000.0,0004.67,0019.87,0002.89
2021-12-08 08:56:00,,0820.6,5.00,0.00,22.4,21.7,00.0,31.4,24.2,11.5,0000.0,0004.68,0020.06,0002.87
2021-12-08 08:57:00,,0820.7,5.00,0.00,22.4,21.7,00.0,31.4,24.2,11.5,0000.0,0004.61,0020.16,0002.82
2021-12-08 08:58:00,,0820.7,5.01,0.00,22.4,21.7,00.0,31.4,24.2,11.5,0000.0,0004.61,0020.93,0002.81
2021-12-08 08:59:00,,0820.7,5.01,0.00,22.5,21.7,00.0,31.4,24.3,11.5,0000.0,0004.60,0021.32,0002.79
